Notices

What's New in latest Release from April 7th, 2021:

- Updated Glossary, including Speed of Maximum Gust, and Total Hourly Precipitation

- Updated national and regional climate services offices contacts and prices information

- Addition of station inventory lists for 1981-2010, 1971-2000, and 1961-1990 Normals.

If you haven't already, please take our survey and provide feedback about our website: https://eccc.sondage-survey.ca/f/LanguageSelection.aspx?s=442ca660-fcf1-47c0-95a9-59707d6fd709

Hourly Data Report for March 18, 2004

SHERBROOKE A
QUEBEC

45°26'00.000" N
71°41'00.000" W
241.40 m
7028124
71610
YSC

Download Data

Hourly Data (March 2004)
Hourly Data Report for March 18, 2004
TIME
LST
Temp Definition
°C
Dew Point Definition
°C
Rel Hum Definition
%
Precip. Amount Definition
mm

Wind Dir Definition
10's deg

Wind Spd Definition
km/h
Visibility Definition
km
Stn Press Definition
kPa
Hmdx Definition


Wind Chill Definition


Weather Definition


00:00 -9.9 -17.3 55   5 9 15.0 98.90   -15  
01:00 -10.4 -17.3 57   6 9 15.0 98.93   -15  
02:00 -10.4 -17.4 56   5 11 15.0 98.94   -16  
03:00 -11.2 -17.7 59   6 9 15.0 98.93   -16  
04:00 -11.4 -17.1 63   6 9 15.0 98.95   -17 Snow
05:00 -11.8 -16.0 71   6 11 5.6 98.96   -18 Snow
06:00 -12.1 -15.2 78   6 11 4.8 98.99   -18 Snow
07:00 -12.0 -14.6 81   5 9 2.6 99.03   -17 Snow
08:00 -11.1 -13.3 84   5 11 3.2 99.04   -17 Snow Showers
09:00 -9.3 -12.1 80   4 9 12.9 99.06   -14 Snow Showers
10:00 -6.9 -10.4 76   6 6 19.3 99.04   -10 Snow Showers
11:00 -4.3 -9.9 65   5 6 19.3 99.02   -7 Snow Showers
12:00 -3.7 -10.6 59   3 6 24.1 98.99   -6 Mostly Cloudy
13:00 -2.7 -10.3 56   30 4 24.1 98.97   -4 Mostly Cloudy
14:00 -1.5 -10.1 52   12 4 24.1 98.96   -3 Mostly Cloudy
15:00 -1.3 -9.6 53   6 7 24.1 98.98   -4 Mostly Cloudy
16:00 -1.1 -9.4 53   31 6 24.1 98.98   -3 Mostly Cloudy
17:00 -1.3 -10.5 50   30 4 24.1 99.00   -3 Mostly Cloudy
18:00 -2.6 -10.2 56   25 4 15.0 99.08   -4  
19:00 -3.7 -9.7 63     0 15.0 99.14      
20:00 -4.7 -9.6 69   10 4 15.0 99.20   -6  
21:00 -6.8 -10.0 78     0 15.0 99.26      
22:00 -4.2 -10.7 60   5 4 15.0 99.29   -6  
23:00 -5.6 -9.7 73   9 4 15.0 99.32   -7  

Notes on Data Quality.

Legend

  • E = Estimated
  • M = Missing
  • NA = Not Available*
  • [empty] = Indicates an unobserved value
Date modified: